DW2342 Kirkland UK current weather conditions

sailwx.info

Wind from 173

Air temperature 12.2° C
Dewpoint 11.0° C

Last reported at 2019-Jun-27 00:45 UTC.
Time now 2019-Jun-27 01:59 UTC

Location: N 54°33' W 003°26'.
View on Google Maps.

See reports from other nearby stations

  
Tides and Currents Weather Stations Pressure Air Temp Water Temp Dewpoint Dewpoint Depression Visibility Wind Speed Wind Dir Waves Ship Positions
date/time (UTC)wind fromknots sea level pressurealtimeterstation pressurevisibilityair tempwater tempwave heightnotes
2019-Jun-27 01:00 173 11.7
2019-Jun-27 00:45 173 12.2
2019-Jun-27 00:30 173 12.2
2019-Jun-27 00:15 173 12.8
2019-Jun-27 00:00 173 0 gusting 2 13.3
2019-Jun-26 23:45 173 12.8
2019-Jun-26 23:30 173 12.8
2019-Jun-26 23:15 173 12.8
2019-Jun-26 23:00 173 13.3
2019-Jun-26 12:01 342 2 gusting 10 16.7
2019-Jun-26 11:46 355 2 gusting 6 17.2
2019-Jun-26 11:31 261 1 gusting 5 17.2
2019-Jun-26 11:16 260 1 gusting 6 16.7
2019-Jun-26 11:00 279 2 gusting 7 16.7
2019-Jun-26 10:45 220 0 gusting 3 17.2
2019-Jun-26 10:30 219 3 gusting 8 16.7
2019-Jun-26 10:15 298 0 gusting 6 17.2
2019-Jun-26 10:00 286 16.1
2019-Jun-26 09:45 313 1 gusting 5 16.7
2019-Jun-26 09:30 325 2 gusting 5 16.1
2019-Jun-26 09:15 030 1 gusting 5 15.0
2019-Jun-26 09:01 346 5 gusting 8 14.4
2019-Jun-26 08:45 355 3 gusting 7 14.4
2019-Jun-26 08:30 345 4 gusting 8 13.3
2019-Jun-26 08:15 020 2 gusting 6 13.3
2019-Jun-26 08:00 019 4 gusting 10 13.3
2019-Jun-26 05:00 355 1 gusting 4 10.6
2019-Jun-26 04:45 060 0 gusting 4 11.1
2019-Jun-26 04:31 071 2 gusting 6 11.1
2019-Jun-26 04:15 098 2 gusting 9 11.1
2019-Jun-26 04:00 071 5 gusting 10 11.1
2019-Jun-26 03:45 120 2 gusting 6 10.6
2019-Jun-26 03:30 069 4 gusting 7 10.0
2019-Jun-26 03:15 018 1 gusting 7 10.6
2019-Jun-26 03:00 062 5 gusting 10 10.6
2019-Jun-26 02:45 022 3 gusting 5 10.0
2019-Jun-26 02:30 005 1 gusting 4 10.0
2019-Jun-26 02:15 10.0
2019-Jun-26 02:02 349 3 gusting 7 10.6
2019-Jun-26 01:46 033 3 gusting 8 10.6
2019-Jun-26 01:32 005 3 gusting 6 10.6
2019-Jun-26 01:16 355 2 gusting 9 11.1
2019-Jun-26 01:01 077 4 gusting 14 11.1
2019-Jun-26 00:46 070 10 gusting 15 11.1
2019-Jun-26 00:31 076 6 gusting 15 11.1
2019-Jun-26 00:17 050 8 gusting 14 11.7
2019-Jun-26 00:01 068 9 gusting 13 11.7
2019-Jun-25 23:46 078 6 gusting 12 11.7
2019-Jun-25 23:31 073 6 gusting 12 11.7
2019-Jun-25 23:16 066 3 gusting 8 11.7
2019-Jun-25 23:01 048 3 gusting 7 11.7
2019-Jun-25 22:46 011 0 gusting 6 11.7
2019-Jun-25 22:30 022 2 gusting 6 11.1
2019-Jun-25 22:15 347 3 gusting 6 11.1
2019-Jun-25 22:00 010 3 gusting 6 11.7
2019-Jun-25 21:45 329 5 gusting 7 11.7
2019-Jun-25 21:30 044 3 gusting 12 11.7
2019-Jun-25 21:00 005 3 gusting 6 12.2
2019-Jun-25 20:45 017 1 gusting 6 12.8
2019-Jun-25 20:30 012 1 gusting 6 12.8
2019-Jun-25 20:15 011 3 gusting 7 12.8
2019-Jun-25 20:00 338 3 gusting 11 13.3
2019-Jun-25 19:46 018 5 gusting 10 13.3
2019-Jun-25 19:32 232 3 gusting 11 13.9
2019-Jun-25 19:16 336 4 gusting 8 13.9
2019-Jun-25 19:01 341 5 gusting 9 14.4
2019-Jun-25 18:47 005 4 gusting 9 14.4
2019-Jun-25 18:31 355 5 gusting 9 15.0
2019-Jun-25 18:16 027 5 gusting 9 15.6
2019-Jun-25 18:01 309 3 gusting 6 16.1
2019-Jun-25 17:46 029 4 gusting 9 16.1
2019-Jun-25 17:30 005 4 gusting 9 16.1
2019-Jun-25 17:16 355 4 gusting 9 16.1
2019-Jun-25 17:00 005 6 gusting 13 15.6
2019-Jun-25 16:46 010 7 gusting 13 15.6
2019-Jun-25 16:31 037 6 gusting 13 15.6
2019-Jun-25 16:16 360 5 gusting 14 16.1
2019-Jun-25 16:00 345 6 gusting 13 16.1
2019-Jun-25 15:46 022 6 gusting 14 16.1
2019-Jun-25 15:30 013 6 gusting 13 15.6
2019-Jun-25 15:15 338 5 gusting 13 15.6
2019-Jun-25 09:01 083 8 gusting 13 15.0
2019-Jun-25 08:46 076 5 gusting 12 15.0
2019-Jun-25 08:31 084 2 gusting 6 15.0
2019-Jun-25 08:16 005 1 gusting 7 14.4
2019-Jun-25 08:01 011 2 gusting 6 14.4
2019-Jun-25 07:46 051 2 gusting 7 14.4
2019-Jun-25 07:31 348 3 gusting 9 14.4
2019-Jun-25 07:15 038 1 gusting 6 14.4
2019-Jun-25 07:01 355 2 gusting 7 14.4
2019-Jun-25 06:45 016 2 gusting 5 14.4
2019-Jun-25 06:31 017 0 gusting 6 14.4
2019-Jun-25 06:16 350 2 gusting 6 14.4
2019-Jun-25 06:01 350 0 gusting 4 14.4
2019-Jun-25 05:46 336 1 gusting 6 14.4
2019-Jun-25 05:31 332 2 gusting 6 14.4